Terminal Aerodrome Forecast
Issued by NWS Quad Cities IA IL

Home | Current Version | Previous Version | Text Only | Print | Product List | Glossary On
Versions: 1 2 3 4 5 6 7 8 9 10 11 12 13 14 15 16 17 18 19 20 21 22 23 24 25 26 27 28 29 30 31 32 33 34 35 36 37 38 39
463
FTUS43 KDVN 282049 AAA
TAFMLI
TAF AMD
KMLI 282049Z 2821/2918 VRB05KT 5SM BR VCSH BKN025 OVC035
      TEMPO 2821/2824 3SM -SHRA BR BKN015 OVC025
     FM290200 06004KT 5SM BR OVC012
     FM290600 04003KT 3SM BR OVC007
     FM291000 36004KT 2SM BR OVC004
     FM291500 03008KT P6SM BKN025=

USA.gov is the U.S. government's official web portal to all federal, state and local government web resources and services.